Location: USNO
(38.9242°N, 77.0663°W)
Time: 11:30:23
(UTC-04:00)

FO-29 - Visible Passes

Search period start: 21 March 2019 00:00
Search period end: 31 March 2019 00:00
Orbit: 799 x 1322 km, 98.5° (Epoch: 20 March)

Date Brightness Start Highest point End Pass type
(mag) Time Alt. Az. Time Alt. Az. Time Alt. Az.
21 Mar 12.2 03:23:26 10° E 03:26:02 13° ENE 03:28:32 10° NE visible
21 Mar 9.4 05:04:00 10° SSE 05:10:31 89° WSW 05:16:17 10° NNW visible
21 Mar 12.5 19:47:29 10° NW 19:48:34 11° WNW 19:49:39 10° WNW visible
22 Mar 11.0 04:10:05 10° SE 04:15:36 33° ENE 04:20:37 10° N visible
22 Mar 10.0 05:54:51 10° SSW 06:00:37 34° W 06:05:50 10° NNW visible
23 Mar 12.2 03:19:11 10° E 03:21:03 12° ENE 03:22:52 10° NE visible
23 Mar 9.4 04:59:07 10° SSE 05:05:29 85° ENE 05:11:09 10° NNW visible
24 Mar 11.1 04:05:20 10° SE 04:10:35 30° ENE 04:15:23 10° N visible
24 Mar 9.9 05:49:49 10° SSW 05:55:34 37° W 06:00:47 10° NNW visible
25 Mar 12.3 03:15:30 10° ENE 03:16:04 10° ENE 03:16:38 10° NE visible
25 Mar 9.4 04:54:14 10° SSE 05:00:27 79° ENE 05:06:01 10° N visible
26 Mar 11.2 04:00:36 10° ESE 04:05:34 28° ENE 04:10:08 10° NNE visible
26 Mar 9.8 05:44:48 10° SSW 05:50:31 39° W 05:55:43 10° NNW visible
27 Mar 9.5 04:49:19 10° SSE 04:55:24 73° ENE 05:00:52 10° N visible
28 Mar 11.3 03:55:52 10° ESE 04:00:32 25° ENE 04:04:54 10° NNE visible
28 Mar 9.7 05:39:46 10° S 05:45:28 42° W 05:50:39 10° NNW visible
29 Mar 9.6 04:44:26 10° SSE 04:50:21 67° ENE 04:55:43 10° N visible
29 Mar 10.8 06:32:37 10° SW 06:35:46 15° W 06:38:48 10° WNW visible
30 Mar 11.4 03:51:08 10° ESE 03:55:31 23° ENE 03:59:37 10° NNE visible
30 Mar 9.5 05:34:44 10° S 05:40:23 45° W 05:45:34 10° NNW visible
